Location: Hurecourt
(47.9030°N, 6.0653°E)
Time: 08:39:35
(UTC+00:00)

IRS-1C - Pass Details

Date: 14 July 2020
Orbit: 815 x 817 km, 98.8° (Epoch: 14 August)

Event Time Altitude Azimuth Distance (km) Brightness Sun altitude
Rises 02:50:58 0° 11° (N) 3,356 8.4 -8.6°
Reaches altitude 10° 02:53:21 10° 7° (N) 2,420 7.5 -8.3°
Maximum altitude 02:58:33 54° 291° (WNW) 984 4.4 -7.7°
Drops below altitude 10° 03:03:43 10° 215° (SW) 2,403 5.9 -7.1°
Enters shadow 03:04:13 - 214° (SW) 2,593 6.1 -7.0°
